Weather History for KCAD - March, 2013

Change the Weather History Date:

Friday, March 8, 2013

  Actual Average Record
Temperature  
Mean Temperature 20 °F -  
Max Temperature 38 °F 35 °F 65 °F (1987)
Min Temperature 2 °F 11 °F -18 °F (1982)
Degree Days  
Heating Degree Days 45    
Moisture  
Dew Point 11 °F    
Average Humidity 64    
Maximum Humidity 85    
Minimum Humidity 39    
Precipitation  
Precipitation 0.00 in - - ()
Sea Level Pressure  
Sea Level Pressure 30.39 in    
Wind  
Wind Speed 1 mph (South)    
Max Wind Speed 10 mph    
Max Gust Speed 16 mph    
Visibility 10 miles    
Events      
Averages and records for this station are not official NWS values.
T = Trace of Precipitation, MM = Missing Value Source: NWS Daily Summary

Daily Weather History Graph

Daily Weather History Graph

Search for Another Location

Airport or City:

Trip Planner

Search our weather history database for the weather conditions in past years. The results will help you decide how hot, cold, wet, or windy it might be!

Date:

Astronomy

Mar. 08, 2013 Rise Set
Actual Time 7:06 AM EST 6:39 PM EST
Civil Twilight 6:37 AM EST 7:08 PM EST
Nautical Twilight 6:03 AM EST 7:41 PM EST
Astronomical Twilight 5:29 AM EST 8:15 PM EST
Moon 4:56 AM EST (3/8) 3:28 PM EST (3/8)
Length of Visible Light 12h 30m
Length of Day
11h 33m
Waning Crescent, 12% of the Moon is Illuminated
Mar 8
Waning Crescent
Mar 11
New
Mar 19
First Quarter
Mar 27
Full
Apr 3
Last Quarter

Hourly Weather History & Observations

Time (EST) Temp. Windchill Dew Point Humidity Pressure Visibility Wind Dir Wind Speed Gust Speed Precip Events Conditions
12:15 AM 11.3 °F - 7.5 °F 85% 30.37 in 10.0 mi Calm Calm - N/A   Clear
12:35 AM 11.3 °F - 7.2 °F 83% 30.38 in 10.0 mi Calm Calm - N/A   Clear
12:54 AM 11.3 °F - 7.5 °F 85% 30.38 in 10.0 mi Calm Calm - N/A   Clear
1:15 AM 9.3 °F - 5.2 °F 83% 30.38 in 10.0 mi Calm Calm - N/A   Clear
1:35 AM 11.3 °F - 6.4 °F 81% 30.39 in 10.0 mi Calm Calm - N/A   Clear
1:54 AM 8.6 °F - 4.3 °F 83% 30.39 in 10.0 mi Calm Calm - N/A   Clear
2:15 AM 8.6 °F - 3.4 °F 79% 30.40 in 10.0 mi Calm Calm - N/A   Clear
2:35 AM 8.6 °F - 3.7 °F 81% 30.40 in 10.0 mi Calm Calm - N/A   Clear
2:54 AM 8.6 °F - 3.9 °F 81% 30.40 in 10.0 mi Calm Calm - N/A   Clear
3:15 AM 7.3 °F - 1.9 °F 79% 30.41 in 10.0 mi Calm Calm - N/A   Clear
3:35 AM 6.4 °F - 1.0 °F 78% 30.40 in 10.0 mi Calm Calm - N/A   Clear
3:54 AM 5.2 °F - 0.5 °F 81% 30.40 in 10.0 mi Calm Calm - N/A   Clear
4:15 AM 5.7 °F - 0.3 °F 78% 30.40 in 10.0 mi Calm Calm - N/A   Clear
4:35 AM 5.0 °F - 0.5 °F 82% 30.39 in 10.0 mi Calm Calm - N/A   Clear
4:54 AM 4.1 °F - -1.1 °F 79% 30.40 in 10.0 mi Calm Calm - N/A   Clear
5:15 AM 3.6 °F - -1.5 °F 80% 30.40 in 10.0 mi Calm Calm - N/A   Clear
5:34 AM 4.1 °F - -1.1 °F 79% 30.41 in 10.0 mi Calm Calm - N/A   Clear
5:55 AM 3.7 °F - -1.8 °F 78% 30.41 in 10.0 mi Calm Calm - N/A   Clear
6:15 AM 3.6 °F - -1.8 °F 78% 30.41 in 10.0 mi Calm Calm - N/A   Clear
6:34 AM 4.1 °F - -1.8 °F 76% 30.42 in 10.0 mi Calm Calm - N/A   Clear
6:55 AM 2.8 °F - -2.6 °F 78% 30.42 in 10.0 mi Calm Calm - N/A   Clear
7:15 AM 3.6 °F - -2.2 °F 77% 30.43 in 10.0 mi Calm Calm - N/A   Clear
7:34 AM 5.0 °F - -2.0 °F 73% 30.43 in 10.0 mi Calm Calm - N/A   Clear
7:55 AM 4.3 °F - -1.1 °F 78% 30.44 in 10.0 mi Calm Calm - N/A   Scattered Clouds
8:15 AM 5.9 °F - 0.3 °F 78% 30.44 in 10.0 mi Calm Calm - N/A   Clear
8:34 AM 9.9 °F - 3.9 °F 77% 30.44 in 10.0 mi Calm Calm - N/A   Clear
8:55 AM 13.8 °F - 5.5 °F 70% 30.45 in 10.0 mi Calm Calm - N/A   Clear
9:15 AM 14.0 °F - 7.7 °F 76% 30.44 in 10.0 mi Calm Calm - N/A   Clear
9:34 AM 18.7 °F - 12.7 °F 78% 30.44 in 10.0 mi Calm Calm - N/A   Clear
9:55 AM 21.2 °F 16.4 °F 14.0 °F 74% 30.43 in 10.0 mi ENE 3.5 mph - N/A   Clear
10:15 AM 25.7 °F - 18.1 °F 73% 30.43 in 10.0 mi Calm Calm - N/A   Clear
10:35 AM 29.5 °F - 19.8 °F 67% 30.43 in 10.0 mi Calm Calm - N/A   Clear
10:55 AM 33.3 °F - 18.9 °F 56% 30.42 in 10.0 mi Calm Calm - N/A   Clear
11:14 AM 31.6 °F - 19.0 °F 60% 30.42 in 10.0 mi Calm Calm - N/A   Clear
11:35 AM 31.5 °F 25.8 °F 17.4 °F 56% 30.41 in 10.0 mi SSE 5.8 mph - N/A   Clear
11:55 AM 32.4 °F - 18.7 °F 57% 30.41 in 10.0 mi Calm Calm - N/A   Clear
12:14 PM 33.8 °F 27.7 °F 19.6 °F 56% 30.42 in 10.0 mi SSE 6.9 mph - N/A   Clear
12:35 PM 33.8 °F 29.6 °F 18.1 °F 53% 30.42 in 10.0 mi SSE 4.6 mph - N/A   Clear
12:55 PM 36.1 °F 32.3 °F 19.4 °F 51% 30.42 in 10.0 mi SSE 4.6 mph - N/A   Clear
1:14 PM 36.1 °F 32.3 °F 18.7 °F 49% 30.40 in 10.0 mi South 4.6 mph - N/A   Clear
1:35 PM 36.3 °F 33.7 °F 17.6 °F 47% 30.39 in 10.0 mi SSE 3.5 mph - N/A   Clear
1:55 PM 36.3 °F 32.5 °F 17.6 °F 47% 30.38 in 10.0 mi SE 4.6 mph - N/A   Clear
2:14 PM 37.8 °F 30.7 °F 18.9 °F 47% 30.38 in 10.0 mi SSW 10.4 mph - N/A   Clear
2:35 PM 38.7 °F 33.6 °F 17.4 °F 42% 30.37 in 10.0 mi SSW 6.9 mph - N/A   Clear
2:55 PM 38.7 °F 34.3 °F 16.9 °F 41% 30.38 in 10.0 mi SSE 5.8 mph - N/A   Clear
3:14 PM 38.7 °F 32.4 °F 16.0 °F 40% 30.37 in 10.0 mi SSE 9.2 mph - N/A   Clear
3:35 PM 38.7 °F 31.8 °F 15.3 °F 39% 30.37 in 10.0 mi South 10.4 mph 16.1 mph N/A   Clear
3:55 PM 38.7 °F 32.9 °F 15.6 °F 39% 30.37 in 10.0 mi South 8.1 mph - N/A   Clear
4:14 PM 38.7 °F 34.3 °F 15.6 °F 39% 30.37 in 10.0 mi SSE 5.8 mph - N/A   Clear
4:35 PM 38.7 °F 35.2 °F 15.4 °F 39% 30.36 in 10.0 mi SSE 4.6 mph - N/A   Clear
4:55 PM 38.7 °F 33.6 °F 16.7 °F 41% 30.36 in 10.0 mi SSE 6.9 mph - N/A   Clear
5:14 PM 38.7 °F 34.3 °F 16.9 °F 41% 30.36 in 10.0 mi SSE 5.8 mph - N/A   Clear
5:35 PM 38.7 °F 35.2 °F 17.6 °F 43% 30.35 in 10.0 mi SSE 4.6 mph - N/A   Clear
5:55 PM 38.7 °F 34.3 °F 17.6 °F 43% 30.35 in 10.0 mi SSE 5.8 mph - N/A   Clear
6:14 PM 38.3 °F 34.8 °F 18.1 °F 44% 30.35 in 10.0 mi SSE 4.6 mph - N/A   Clear
6:35 PM 36.1 °F 33.5 °F 17.6 °F 47% 30.35 in 10.0 mi South 3.5 mph - N/A   Clear
6:55 PM 36.1 °F 32.3 °F 18.5 °F 49% 30.35 in 10.0 mi South 4.6 mph - N/A   Clear
7:14 PM 36.1 °F 33.5 °F 18.9 °F 50% 30.35 in 10.0 mi SSE 3.5 mph - N/A   Clear
7:35 PM 36.1 °F 33.5 °F 19.0 °F 50% 30.35 in 10.0 mi South 3.5 mph - N/A   Clear
7:55 PM 32.0 °F 28.7 °F 17.4 °F 55% 30.35 in 10.0 mi SSW 3.5 mph - N/A   Clear
8:15 PM 31.5 °F 26.8 °F 17.4 °F 56% 30.36 in 10.0 mi SSW 4.6 mph - N/A   Clear
8:35 PM 31.5 °F 28.1 °F 19.4 °F 61% 30.36 in 10.0 mi South 3.5 mph - N/A   Clear
8:55 PM 31.5 °F 28.1 °F 18.0 °F 57% 30.36 in 10.0 mi South 3.5 mph - N/A   Clear
9:15 PM 31.5 °F - 18.3 °F 58% 30.35 in 10.0 mi Calm Calm - N/A   Clear
9:35 PM 29.8 °F 26.3 °F 17.8 °F 61% 30.36 in 10.0 mi SSW 3.5 mph - N/A   Clear
9:54 PM 28.9 °F 25.2 °F 17.8 °F 63% 30.36 in 10.0 mi South 3.5 mph - N/A   Clear
10:15 PM 28.9 °F - 18.3 °F 65% 30.36 in 10.0 mi Calm Calm - N/A   Clear
10:35 PM 27.9 °F - 18.1 °F 67% 30.35 in 10.0 mi Calm Calm - N/A   Clear
10:54 PM 26.4 °F - 17.6 °F 69% 30.35 in 10.0 mi Calm Calm - N/A   Clear
11:15 PM 24.6 °F - 17.4 °F 74% 30.34 in 10.0 mi Calm Calm - N/A   Clear
11:35 PM 24.1 °F - 16.7 °F 73% 30.33 in 10.0 mi Calm Calm - N/A   Clear
11:54 PM 22.8 °F - 15.6 °F 74% 30.33 in 10.0 mi Calm Calm - N/A   Clear